User: anonymous   Login
Location: Los Gatos B&B
(42.6926°N, 77.0646°W)
Time: 23:56:04
(UTC-04:00)
Language:

SL-16 R/B - Orbit

View from above orbital plane
View from above orbital plane
View from above satellite
View from above satellite

Ground track
Ground track

The orbit data is extracted from the following two-line orbital elements,

1 28353U 04021B   17290.72788372  .00000196  00000-0  12781-3 0  9999
2 28353  71.0016 181.4760 0005180 349.0415  11.0593 14.14206749689487
Epoch (UTC): 17 October 2017 17:28:09
Eccentricity: 0.0005180
inclination: 71.0016°
perigee height: 841 km
apogee height: 849 km
right ascension of ascending node: 181.4760°
argument of perigee: 349.0415°
revolutions per day: 14.14206749
mean anomaly at epoch: 11.0593°
orbit number at epoch: 68948

The dashed part of the orbit path shows where the satellite is in the earth's shadow,  

DLR